Simultaneous Nadir Overpasses (SNOs) Predictions

Prediction of SNOs between METOP-A and TERRA Satellite Orbit:

Table of predicted SNOs for the next 14.0 days since TLE Epoch: 7/14/2017
Index Date (METOP-A) Time (METOP-A) Lat,Lon (METOP-A) SZA (METOP-A ) Date (TERRA) Time (TERRA) Lat,Lon (TERRA) SZA (TERRA ) Distance(km) Time Diff (sec)
1 07/15/2017 02:26:57 81.35,-168.91 62.64 07/15/2017 02:27:35 81.34,-168.98 62.65 1.49 38
2 07/15/2017 03:17:36 -81.35, -0.91 117.28 07/15/2017 03:17:01 -81.35, -1.00 117.30 1.58 35
3 07/17/2017 22:01:16 81.35,-102.21 63.13 07/17/2017 22:01:50 81.36,-102.19 63.16 0.89 34
4 07/17/2017 22:51:56 -81.35, 65.44 116.83 07/17/2017 22:51:17 -81.35, 65.43 116.84 0.40 39
5 07/20/2017 17:35:37 81.35, -35.92 63.63 07/20/2017 17:36:07 81.35, -35.82 63.66 1.84 30
6 07/20/2017 18:26:17 -81.35, 131.78 116.33 07/20/2017 18:25:34 -81.35, 131.82 116.34 0.64 43
7 07/23/2017 13:09:58 81.35, 30.35 64.16 07/23/2017 13:10:24 81.35, 30.51 64.20 2.68 26
8 07/23/2017 14:00:38 -81.35,-161.90 115.78 07/23/2017 13:59:51 -81.35,-161.83 115.80 1.09 47
9 07/26/2017 08:44:18 81.34, 96.62 64.75 07/26/2017 08:44:40 81.34, 96.81 64.78 3.22 22




NCC Satellite Simultaneous Nadir Overpasses (SNOs) Prediction Service
